| time (UTC) | temp F | wind direction | speed MPH | gust MPH | rain 1hr in | rain 24hr in | rain mn in | humidity % | barometer mb |
| 20260508060421 | 51 | 236 | 0.0 | 1.0 | 0.00 | 0.00 | 0.00 | 81 | 1016.0 |
| 20260508055929 | 51 | 231 | 0.0 | 0.0 | 0.00 | 0.00 | 0.00 | 79 | 1016.0 |
| 20260508055922 | 51 | 230 | 0.0 | 1.0 | 0.00 | 0.00 | 0.00 | 81 | 1016.0 |
| 20260508055421 | 51 | 230 | 0.0 | 0.0 | 0.00 | 0.00 | 0.00 | 81 | 1016.0 |
| 20260508054921 | 51 | 231 | 0.0 | 0.0 | 0.00 | 0.00 | 0.00 | 81 | 1016.0 |
| 20260508053921 | 52 | 231 | 0.0 | 0.0 | 0.00 | 0.00 | 0.00 | 80 | 1016.1 |
| 20260508053418 | 52 | 231 | 0.0 | 1.0 | 0.00 | 0.00 | 0.00 | 79 | 1016.2 |
| 20260508052919 | 52 | 231 | 0.0 | 1.0 | 0.00 | 0.00 | 0.00 | 79 | 1016.2 |
| 20260508052418 | 52 | 231 | 0.0 | 0.0 | 0.00 | 0.00 | 0.00 | 79 | 1016.2 |
| 20260508051918 | 53 | 231 | 0.0 | 0.0 | 0.00 | 0.00 | 0.00 | 79 | 1016.2 |
| 20260508051418 | 53 | 231 | 0.0 | 1.0 | 0.00 | 0.00 | 0.00 | 78 | 1016.2 |
| 20260508050925 | 53 | 231 | 0.0 | 0.0 | 0.00 | 0.00 | 0.00 | 78 | 1016.2 |
| 20260508050919 | 53 | 231 | 0.0 | 1.0 | 0.00 | 0.00 | 0.00 | 78 | 1016.2 |
| 20260508045919 | 53 | 231 | 0.0 | 1.0 | 0.00 | 0.00 | 0.00 | 77 | 1016.3 |
| 20260508045417 | 53 | 231 | 1.0 | 2.0 | 0.00 | 0.00 | 0.00 | 76 | 1016.2 |
| 20260508044918 | 53 | 230 | 1.0 | 2.0 | 0.00 | 0.00 | 0.00 | 76 | 1016.1 |
| 20260508044420 | 53 | 56 | 0.0 | 1.0 | 0.00 | 0.00 | 0.00 | 76 | 1016.0 |
| 20260508044415 | 53 | 56 | 0.0 | 1.0 | 0.00 | 0.00 | 0.00 | 76 | 1016.1 |
| 20260508043415 | 53 | 56 | 0.0 | 0.0 | 0.00 | 0.00 | 0.00 | 76 | 1016.1 |
| 20260508042915 | 54 | 56 | 0.0 | 1.0 | 0.00 | 0.00 | 0.00 | 75 | 1016.1 |
| 20260508042416 | 54 | 56 | 0.0 | 1.0 | 0.00 | 0.00 | 0.00 | 75 | 1016.2 |
| 20260508041916 | 54 | 56 | 0.0 | 1.0 | 0.00 | 0.00 | 0.00 | 74 | 1016.2 |
| 20260508041416 | 54 | 56 | 0.0 | 1.0 | 0.00 | 0.00 | 0.00 | 73 | 1016.1 |
| 20260508040914 | 55 | 56 | 0.0 | 1.0 | 0.00 | 0.00 | 0.00 | 73 | 1016.0 |
| 20260508040412 | 55 | 56 | 0.0 | 1.0 | 0.00 | 0.00 | 0.00 | 72 | 1016.0 |
| 20260508035912 | 55 | 56 | 0.0 | 1.0 | 0.00 | 0.00 | 0.00 | 71 | 1016.0 |
| 20260508035413 | 55 | 56 | 0.0 | 1.0 | 0.00 | 0.00 | 0.00 | 71 | 1016.0 |
| 20260508034913 | 56 | 56 | 0.0 | 1.0 | 0.00 | 0.00 | 0.00 | 70 | 1016.0 |
| 20260508034412 | 56 | 56 | 0.0 | 1.0 | 0.00 | 0.00 | 0.00 | 70 | 1016.0 |
| 20260508033914 | 56 | 56 | 0.0 | 1.0 | 0.00 | 0.00 | 0.00 | 69 | 1015.9 |
| 20260508033414 | 57 | 56 | 0.0 | 1.0 | 0.00 | 0.00 | 0.00 | 68 | 1015.9 |
| 20260508032917 | 57 | 56 | 0.0 | 1.0 | 0.00 | 0.00 | 0.00 | 67 | 1015.9 |
| 20260508032911 | 57 | 56 | 0.0 | 1.0 | 0.00 | 0.00 | 0.00 | 67 | 1015.8 |
| 20260508031910 | 58 | 56 | 0.0 | 1.0 | 0.00 | 0.00 | 0.00 | 67 | 1015.8 |
| 20260508031411 | 58 | 56 | 0.0 | 1.0 | 0.00 | 0.00 | 0.00 | 66 | 1015.8 |
| 20260508030915 | 59 | 56 | 0.0 | 2.0 | 0.00 | 0.00 | 0.00 | 64 | 1015.8 |
| 20260508030911 | 59 | 56 | 0.0 | 1.0 | 0.00 | 0.00 | 0.00 | 65 | 1015.9 |
| 20260508025912 | 59 | 56 | 0.0 | 2.0 | 0.00 | 0.00 | 0.00 | 62 | 1015.9 |
| 20260508025410 | 60 | 80 | 1.0 | 2.0 | 0.00 | 0.00 | 0.00 | 62 | 1015.9 |
| 20260508024911 | 60 | 80 | 1.0 | 2.0 | 0.00 | 0.00 | 0.00 | 61 | 1015.8 |
| 20260508024411 | 60 | 46 | 0.0 | 3.0 | 0.00 | 0.00 | 0.00 | 61 | 1015.8 |
| 20260508023911 | 60 | 55 | 0.0 | 3.0 | 0.00 | 0.00 | 0.00 | 61 | 1015.9 |
| 20260508023415 | 62 | 110 | 0.0 | 1.0 | 0.00 | 0.00 | 0.00 | 59 | 1016.0 |
| 20260508023409 | 61 | 7 | 0.0 | 2.0 | 0.00 | 0.00 | 0.00 | 60 | 1015.9 |
| 20260508022909 | 61 | 7 | 0.0 | 2.0 | 0.00 | 0.00 | 0.00 | 59 | 1015.9 |
| 20260508021913 | 62 | 110 | 0.0 | 1.0 | 0.00 | 0.00 | 0.00 | 58 | 1016.0 |
| 20260508021908 | 62 | 110 | 0.0 | 1.0 | 0.00 | 0.00 | 0.00 | 58 | 1016.0 |
| 20260508020910 | 62 | 110 | 0.0 | 1.0 | 0.00 | 0.00 | 0.00 | 56 | 1016.1 |
| 20260508020410 | 63 | 110 | 0.0 | 1.0 | 0.00 | 0.00 | 0.00 | 53 | 1016.2 |
| 20260508015908 | 63 | 110 | 0.0 | 1.0 | 0.00 | 0.00 | 0.00 | 54 | 1016.1 |
| 20260508015408 | 63 | 110 | 1.0 | 4.0 | 0.00 | 0.00 | 0.00 | 53 | 1016.2 |
| 20260508014913 | 64 | 57 | 1.0 | 4.0 | 0.00 | 0.00 | 0.00 | 52 | 1016.2 |
| 20260508014908 | 63 | 91 | 1.0 | 4.0 | 0.00 | 0.00 | 0.00 | 52 | 1016.1 |
| 20260508014407 | 63 | 54 | 1.0 | 4.0 | 0.00 | 0.00 | 0.00 | 52 | 1016.1 |
| 20260508013407 | 64 | 31 | 1.0 | 4.0 | 0.00 | 0.00 | 0.00 | 50 | 1016.1 |
| 20260508012907 | 64 | 53 | 1.0 | 2.0 | 0.00 | 0.00 | 0.00 | 52 | 1016.2 |
| 20260508012407 | 64 | 91 | 1.0 | 2.0 | 0.00 | 0.00 | 0.00 | 51 | 1016.4 |
| 20260508011907 | 65 | 187 | 0.0 | 2.0 | 0.00 | 0.00 | 0.00 | 50 | 1016.3 |
| 20260508011409 | 65 | 276 | 0.0 | 1.0 | 0.00 | 0.00 | 0.00 | 51 | 1016.5 |
| 20260508010909 | 64 | 276 | 0.0 | 1.0 | 0.00 | 0.00 | 0.00 | 52 | 1016.5 |
| 20260508010905 | 64 | 276 | 1.0 | 3.0 | 0.00 | 0.00 | 0.00 | 52 | 1016.6 |
| 20260508005905 | 65 | 276 | 0.0 | 3.0 | 0.00 | 0.00 | 0.00 | 50 | 1016.7 |
| 20260508005403 | 66 | 73 | 0.0 | 2.0 | 0.00 | 0.00 | 0.00 | 51 | 1016.7 |
| 20260508004902 | 65 | 73 | 0.0 | 2.0 | 0.00 | 0.00 | 0.00 | 51 | 1016.7 |
| 20260508004401 | 65 | 72 | 1.0 | 3.0 | 0.00 | 0.00 | 0.00 | 51 | 1016.7 |
| 20260508003901 | 65 | 67 | 1.0 | 3.0 | 0.00 | 0.00 | 0.00 | 49 | 1016.7 |
| 20260508003404 | 66 | 281 | 1.0 | 3.0 | 0.00 | 0.00 | 0.00 | 48 | 1016.8 |
| 20260508003400 | 66 | 46 | 1.0 | 3.0 | 0.00 | 0.00 | 0.00 | 48 | 1016.8 |
| 20260508002400 | 66 | 316 | 1.0 | 3.0 | 0.00 | 0.00 | 0.00 | 51 | 1016.8 |
| 20260508001901 | 66 | 252 | 1.0 | 4.0 | 0.00 | 0.00 | 0.00 | 53 | 1016.8 |
| 20260508001359 | 65 | 176 | 2.0 | 4.0 | 0.00 | 0.00 | 0.00 | 51 | 1016.9 |
| 20260508000900 | 65 | 273 | 2.0 | 4.0 | 0.00 | 0.00 | 0.00 | 51 | 1016.9 |
| 20260508000359 | 65 | 210 | 2.0 | 5.0 | 0.00 | 0.00 | 0.00 | 51 | 1016.9 |
| 20260507235856 | 65 | 162 | 2.0 | 5.0 | 0.00 | 0.00 | 0.00 | 50 | 1016.9 |
| 20260507235358 | 65 | 185 | 2.0 | 5.0 | 0.00 | 0.00 | 0.00 | 50 | 1017.1 |
| 20260507234857 | 65 | 193 | 2.0 | 4.0 | 0.00 | 0.00 | 0.00 | 51 | 1017.1 |
| 20260507234359 | 65 | 142 | 2.0 | 5.0 | 0.00 | 0.00 | 0.00 | 52 | 1017.2 |
| 20260507233854 | 64 | 170 | 2.0 | 7.0 | 0.00 | 0.00 | 0.00 | 50 | 1017.1 |
| 20260507233355 | 64 | 202 | 3.0 | 7.0 | 0.00 | 0.00 | 0.00 | 54 | 1017.1 |
| 20260507232854 | 63 | 129 | 3.0 | 7.0 | 0.00 | 0.00 | 0.00 | 52 | 1017.2 |
| 20260507232355 | 63 | 274 | 3.0 | 7.0 | 0.00 | 0.00 | 0.00 | 52 | 1017.2 |
| 20260507231855 | 63 | 126 | 2.0 | 6.0 | 0.00 | 0.00 | 0.00 | 53 | 1017.3 |
| 20260507231355 | 63 | 160 | 3.0 | 7.0 | 0.00 | 0.00 | 0.00 | 53 | 1017.4 |
| 20260507230855 | 62 | 121 | 4.0 | 7.0 | 0.00 | 0.00 | 0.00 | 53 | 1017.4 |
| 20260507230353 | 63 | 160 | 4.0 | 7.0 | 0.00 | 0.00 | 0.00 | 53 | 1017.5 |
| 20260507225853 | 63 | 125 | 3.0 | 9.0 | 0.00 | 0.00 | 0.00 | 53 | 1017.6 |
| 20260507225355 | 63 | 119 | 3.0 | 9.0 | 0.00 | 0.00 | 0.00 | 52 | 1017.6 |
| 20260507224854 | 63 | 187 | 3.0 | 7.0 | 0.00 | 0.00 | 0.00 | 54 | 1017.7 |
| 20260507224401 | 63 | 200 | 2.0 | 8.0 | 0.00 | 0.00 | 0.00 | 53 | 1017.8 |
| 20260507224355 | 63 | 154 | 3.0 | 8.0 | 0.00 | 0.00 | 0.00 | 54 | 1017.6 |
| 20260507223357 | 63 | 76 | 2.0 | 5.0 | 0.00 | 0.00 | 0.00 | 53 | 1017.8 |
| 20260507222854 | 63 | 268 | 3.0 | 6.0 | 0.00 | 0.00 | 0.00 | 52 | 1017.8 |
| 20260507222354 | 62 | 200 | 4.0 | 8.0 | 0.00 | 0.00 | 0.00 | 53 | 1017.9 |
| 20260507221853 | 63 | 139 | 3.0 | 8.0 | 0.00 | 0.00 | 0.00 | 51 | 1017.9 |
| 20260507221353 | 64 | 204 | 2.0 | 7.0 | 0.00 | 0.00 | 0.00 | 53 | 1018.0 |
| 20260507220900 | 63 | 212 | 2.0 | 7.0 | 0.00 | 0.00 | 0.00 | 54 | 1018.1 |
| 20260507220855 | 63 | 128 | 1.0 | 5.0 | 0.00 | 0.00 | 0.00 | 52 | 1018.0 |
| 20260507215855 | 62 | 11 | 3.0 | 7.0 | 0.00 | 0.00 | 0.00 | 54 | 1018.2 |
| 20260507215353 | 62 | 261 | 3.0 | 6.0 | 0.00 | 0.00 | 0.00 | 54 | 1018.2 |
| 20260507214853 | 62 | 237 | 3.0 | 7.0 | 0.00 | 0.00 | 0.00 | 55 | 1018.3 |
| 20260507214354 | 62 | 262 | 2.0 | 7.0 | 0.00 | 0.00 | 0.00 | 52 | 1018.4 |
| 20260507213854 | 63 | 192 | 3.0 | 8.0 | 0.00 | 0.00 | 0.00 | 56 | 1018.4 |
| 20260507213353 | 62 | 188 | 3.0 | 8.0 | 0.00 | 0.00 | 0.00 | 54 | 1018.4 |
| 20260507212859 | 62 | 120 | 3.0 | 9.0 | 0.00 | 0.00 | 0.00 | 55 | 1018.6 |
| 20260507212854 | 63 | 142 | 3.0 | 6.0 | 0.00 | 0.00 | 0.00 | 56 | 1018.4 |
| 20260507211901 | 62 | 167 | 3.0 | 9.0 | 0.00 | 0.00 | 0.00 | 54 | 1018.7 |
| 20260507211856 | 62 | 118 | 3.0 | 9.0 | 0.00 | 0.00 | 0.00 | 53 | 1018.7 |
| 20260507210855 | 62 | 131 | 3.0 | 9.0 | 0.00 | 0.00 | 0.00 | 55 | 1018.7 |
| 20260507210355 | 62 | 180 | 2.0 | 6.0 | 0.00 | 0.00 | 0.00 | 54 | 1018.7 |
| 20260507205859 | 62 | 247 | 3.0 | 8.0 | 0.00 | 0.00 | 0.00 | 54 | 1018.8 |
| 20260507205854 | 61 | 83 | 3.0 | 6.0 | 0.00 | 0.00 | 0.00 | 55 | 1018.7 |
| 20260507204853 | 62 | 229 | 3.0 | 8.0 | 0.00 | 0.00 | 0.00 | 52 | 1018.8 |
| 20260507204351 | 63 | 102 | 3.0 | 7.0 | 0.00 | 0.00 | 0.00 | 54 | 1018.9 |
| 20260507203852 | 62 | 149 | 3.0 | 8.0 | 0.00 | 0.00 | 0.00 | 53 | 1019.0 |
| 20260507203352 | 62 | 184 | 3.0 | 8.0 | 0.00 | 0.00 | 0.00 | 54 | 1019.0 |
| 20260507202857 | 61 | 120 | 3.0 | 8.0 | 0.00 | 0.00 | 0.00 | 55 | 1019.1 |
| 20260507202851 | 62 | 173 | 3.0 | 7.0 | 0.00 | 0.00 | 0.00 | 54 | 1019.1 |
| 20260507201851 | 61 | 118 | 3.0 | 8.0 | 0.00 | 0.00 | 0.00 | 55 | 1019.1 |
| 20260507201351 | 61 | 147 | 3.0 | 7.0 | 0.00 | 0.00 | 0.00 | 55 | 1019.2 |
| 20260507200854 | 60 | 120 | 4.0 | 9.0 | 0.00 | 0.00 | 0.00 | 59 | 1019.3 |
| 20260507200353 | 59 | 105 | 4.0 | 9.0 | 0.00 | 0.00 | 0.00 | 59 | 1019.3 |
| 20260507195852 | 59 | 116 | 3.0 | 8.0 | 0.00 | 0.00 | 0.00 | 58 | 1019.4 |
| 20260507195353 | 60 | 146 | 2.0 | 7.0 | 0.00 | 0.00 | 0.00 | 58 | 1019.4 |
| 20260507194852 | 60 | 240 | 3.0 | 7.0 | 0.00 | 0.00 | 0.00 | 59 | 1019.4 |
| 20260507194352 | 59 | 134 | 3.0 | 7.0 | 0.00 | 0.00 | 0.00 | 60 | 1019.5 |
| 20260507193849 | 59 | 157 | 3.0 | 7.0 | 0.00 | 0.00 | 0.00 | 60 | 1019.5 |
| 20260507193348 | 58 | 301 | 2.0 | 5.0 | 0.00 | 0.00 | 0.00 | 60 | 1019.4 |
| 20260507192847 | 59 | 310 | 2.0 | 5.0 | 0.00 | 0.00 | 0.00 | 59 | 1019.5 |
| 20260507192353 | 59 | 105 | 2.0 | 6.0 | 0.00 | 0.00 | 0.00 | 59 | 1019.5 |
| 20260507192348 | 60 | 327 | 2.0 | 6.0 | 0.00 | 0.00 | 0.00 | 60 | 1019.5 |
| 20260507191347 | 59 | 319 | 2.0 | 6.0 | 0.00 | 0.00 | 0.00 | 59 | 1019.5 |
| 20260507190847 | 58 | 128 | 3.0 | 5.0 | 0.00 | 0.00 | 0.00 | 62 | 1019.6 |
| 20260507190347 | 58 | 115 | 3.0 | 6.0 | 0.00 | 0.00 | 0.00 | 61 | 1019.7 |
| 20260507185845 | 58 | 191 | 3.0 | 6.0 | 0.00 | 0.00 | 0.00 | 60 | 1019.6 |
| 20260507185353 | 58 | 346 | 3.0 | 6.0 | 0.00 | 0.00 | 0.00 | 61 | 1019.8 |
| 20260507185346 | 59 | 167 | 3.0 | 9.0 | 0.00 | 0.00 | 0.00 | 63 | 1019.6 |
| 20260507184847 | 58 | 145 | 3.0 | 9.0 | 0.00 | 0.00 | 0.00 | 61 | 1019.7 |
| 20260507183845 | 58 | 158 | 3.0 | 7.0 | 0.00 | 0.00 | 0.00 | 64 | 1019.8 |
| 20260507183347 | 58 | 168 | 3.0 | 7.0 | 0.00 | 0.00 | 0.00 | 61 | 1019.8 |
| 20260507182845 | 58 | 195 | 2.0 | 5.0 | 0.00 | 0.00 | 0.00 | 62 | 1019.7 |
| 20260507182350 | 57 | 184 | 2.0 | 6.0 | 0.00 | 0.00 | 0.00 | 64 | 1019.9 |
| 20260507182345 | 57 | 15 | 2.0 | 6.0 | 0.00 | 0.00 | 0.00 | 64 | 1019.8 |
| 20260507181506 | 57 | 89 | 2.0 | 7.0 | 0.00 | 0.00 | 0.00 | 65 | 1019.9 |
| 20260507181349 | 57 | 121 | 3.0 | 8.0 | 0.00 | 0.00 | 0.00 | 64 | 1020.1 |
| 20260507181343 | 57 | 224 | 3.0 | 8.0 | 0.00 | 0.00 | 0.00 | 66 | 1020.1 |
| 20260507175844 | 56 | 303 | 2.0 | 7.0 | 0.00 | 0.00 | 0.00 | 65 | 1020.1 |
| 20260507175346 | 56 | 139 | 2.0 | 6.0 | 0.00 | 0.00 | 0.00 | 66 | 1020.1 |
| 20260507174845 | 56 | 168 | 2.0 | 6.0 | 0.00 | 0.00 | 0.00 | 66 | 1020.1 |
| 20260507174344 | 56 | 149 | 3.0 | 6.0 | 0.00 | 0.00 | 0.00 | 67 | 1020.2 |
| 20260507173841 | 55 | 193 | 3.0 | 6.0 | 0.00 | 0.00 | 0.00 | 68 | 1020.1 |
| 20260507173343 | 55 | 231 | 3.0 | 7.0 | 0.00 | 0.00 | 0.00 | 68 | 1020.2 |
| 20260507172842 | 56 | 153 | 2.0 | 7.0 | 0.00 | 0.00 | 0.00 | 67 | 1020.2 |
| 20260507172343 | 56 | 293 | 2.0 | 5.0 | 0.00 | 0.00 | 0.00 | 67 | 1020.2 |
| 20260507171842 | 56 | 234 | 2.0 | 5.0 | 0.00 | 0.00 | 0.00 | 67 | 1020.2 |
| 20260507171350 | 55 | 255 | 2.0 | 5.0 | 0.00 | 0.00 | 0.00 | 69 | 1020.2 |
| 20260507171344 | 56 | 217 | 2.0 | 5.0 | 0.00 | 0.00 | 0.00 | 69 | 1020.3 |
| 20260507170343 | 55 | 311 | 2.0 | 8.0 | 0.00 | 0.00 | 0.00 | 70 | 1020.2 |
| 20260507165841 | 54 | 106 | 3.0 | 8.0 | 0.00 | 0.00 | 0.00 | 69 | 1020.2 |
| 20260507165340 | 55 | 116 | 2.0 | 5.0 | 0.00 | 0.00 | 0.00 | 70 | 1020.2 |
| 20260507164839 | 54 | 217 | 3.0 | 5.0 | 0.00 | 0.00 | 0.00 | 70 | 1020.2 |
| 20260507164339 | 54 | 104 | 3.0 | 6.0 | 0.00 | 0.00 | 0.00 | 71 | 1020.2 |
| 20260507163840 | 54 | 173 | 2.0 | 6.0 | 0.00 | 0.00 | 0.00 | 71 | 1020.3 |
| 20260507163340 | 54 | 125 | 2.0 | 6.0 | 0.00 | 0.00 | 0.00 | 70 | 1020.3 |
| 20260507162840 | 54 | 203 | 2.0 | 7.0 | 0.00 | 0.00 | 0.00 | 73 | 1020.2 |
| 20260507162336 | 53 | 109 | 2.0 | 7.0 | 0.00 | 0.00 | 0.00 | 70 | 1020.2 |
| 20260507161837 | 53 | 172 | 2.0 | 6.0 | 0.00 | 0.00 | 0.00 | 72 | 1020.3 |
| 20260507161343 | 52 | 161 | 2.0 | 6.0 | 0.00 | 0.00 | 0.00 | 73 | 1020.3 |
| 20260507161337 | 52 | 257 | 2.0 | 6.0 | 0.00 | 0.00 | 0.00 | 73 | 1020.3 |
| 20260507160334 | 52 | 153 | 2.0 | 4.0 | 0.00 | 0.00 | 0.00 | 74 | 1020.3 |
| 20260507155834 | 52 | 129 | 2.0 | 7.0 | 0.00 | 0.00 | 0.00 | 74 | 1020.3 |
| 20260507155335 | 52 | 161 | 2.0 | 7.0 | 0.00 | 0.00 | 0.00 | 73 | 1020.3 |
| 20260507154836 | 52 | 27 | 2.0 | 5.0 | 0.00 | 0.00 | 0.00 | 75 | 1020.3 |
| 20260507154339 | 51 | 238 | 2.0 | 6.0 | 0.00 | 0.00 | 0.00 | 75 | 1020.3 |
| 20260507154333 | 51 | 201 | 3.0 | 6.0 | 0.00 | 0.00 | 0.00 | 75 | 1020.4 |
| 20260507153333 | 51 | 169 | 2.0 | 6.0 | 0.00 | 0.00 | 0.00 | 75 | 1020.4 |
| 20260507152838 | 51 | 146 | 1.0 | 5.0 | 0.00 | 0.00 | 0.00 | 76 | 1020.4 |
| 20260507152832 | 52 | 205 | 1.0 | 5.0 | 0.00 | 0.00 | 0.00 | 75 | 1020.4 |
| 20260507151833 | 51 | 173 | 2.0 | 5.0 | 0.00 | 0.00 | 0.00 | 77 | 1020.4 |
| 20260507151333 | 51 | 75 | 1.0 | 4.0 | 0.00 | 0.00 | 0.00 | 77 | 1020.4 |
| 20260507150833 | 51 | 215 | 1.0 | 4.0 | 0.00 | 0.00 | 0.00 | 78 | 1020.4 |
| 20260507150338 | 50 | 177 | 2.0 | 5.0 | 0.00 | 0.00 | 0.00 | 79 | 1020.5 |
| 20260507150334 | 50 | 79 | 1.0 | 4.0 | 0.00 | 0.00 | 0.00 | 78 | 1020.5 |
| 20260507145955 | 50 | 32 | 0.0 | 2.0 | 0.00 | 0.00 | 0.00 | 79 | 1020.4 |
| 20260507145334 | 50 | 118 | 1.0 | 5.0 | 0.00 | 0.00 | 0.00 | 78 | 1020.5 |
| 20260507144332 | 50 | 32 | 0.0 | 2.0 | 0.00 | 0.00 | 0.00 | 79 | 1020.4 |
| 20260507143832 | 50 | 225 | 1.0 | 3.0 | 0.00 | 0.00 | 0.00 | 79 | 1020.5 |
| 20260507143332 | 50 | 286 | 1.0 | 3.0 | 0.00 | 0.00 | 0.00 | 79 | 1020.4 |
| 20260507142831 | 50 | 276 | 1.0 | 3.0 | 0.00 | 0.00 | 0.00 | 80 | 1020.4 |
| 20260507142331 | 49 | 274 | 1.0 | 3.0 | 0.00 | 0.00 | 0.00 | 80 | 1020.4 |
| 20260507141832 | 49 | 229 | 1.0 | 3.0 | 0.00 | 0.00 | 0.00 | 80 | 1020.4 |
| 20260507141332 | 49 | 302 | 1.0 | 3.0 | 0.00 | 0.00 | 0.00 | 81 | 1020.4 |
| 20260507140830 | 49 | 214 | 0.0 | 1.0 | 0.00 | 0.00 | 0.00 | 81 | 1020.4 |
| 20260507140332 | 49 | 167 | 0.0 | 1.0 | 0.00 | 0.00 | 0.00 | 81 | 1020.3 |
| 20260507135829 | 49 | 307 | 0.0 | 2.0 | 0.00 | 0.00 | 0.00 | 81 | 1020.3 |
| 20260507135329 | 49 | 54 | 0.0 | 3.0 | 0.00 | 0.00 | 0.00 | 82 | 1020.2 |
| 20260507134829 | 49 | 214 | 0.0 | 3.0 | 0.00 | 0.00 | 0.00 | 82 | 1020.2 |
| 20260507134329 | 49 | 151 | 0.0 | 2.0 | 0.00 | 0.00 | 0.00 | 82 | 1020.1 |
| 20260507133830 | 49 | 187 | 0.0 | 0.0 | 0.00 | 0.00 | 0.00 | 82 | 1020.1 |
| 20260507133330 | 49 | 187 | 0.0 | 0.0 | 0.00 | 0.00 | 0.00 | 82 | 1020.1 |
| 20260507132833 | 49 | 169 | 0.0 | 0.0 | 0.00 | 0.00 | 0.00 | 82 | 1020.1 |
| 20260507132829 | 49 | 187 | 0.0 | 0.0 | 0.00 | 0.00 | 0.00 | 82 | 1020.2 |
| 20260507131831 | 49 | 173 | 0.0 | 0.0 | 0.00 | 0.00 | 0.00 | 82 | 1020.2 |
| 20260507131329 | 49 | 169 | 0.0 | 1.0 | 0.00 | 0.00 | 0.00 | 82 | 1020.1 |
| 20260507130830 | 49 | 131 | 1.0 | 4.0 | 0.00 | 0.00 | 0.00 | 82 | 1019.9 |
| 20260507130334 | 49 | 276 | 1.0 | 4.0 | 0.00 | 0.00 | 0.00 | 82 | 1019.8 |
| 20260507130328 | 49 | 209 | 1.0 | 4.0 | 0.00 | 0.00 | 0.00 | 82 | 1019.9 |
| 20260507125337 | 49 | 226 | 0.0 | 2.0 | 0.00 | 0.00 | 0.00 | 82 | 1020.1 |
| 20260507125329 | 49 | 124 | 0.0 | 3.0 | 0.00 | 0.00 | 0.00 | 82 | 1019.9 |
| 20260507124829 | 49 | 233 | 0.0 | 2.0 | 0.00 | 0.00 | 0.00 | 82 | 1019.9 |
| 20260507124328 | 49 | 232 | 0.0 | 2.0 | 0.00 | 0.00 | 0.00 | 82 | 1019.9 |
| 20260507123830 | 49 | 262 | 1.0 | 2.0 | 0.00 | 0.00 | 0.00 | 82 | 1020.1 |
| 20260507122831 | 49 | 299 | 0.0 | 3.0 | 0.00 | 0.00 | 0.00 | 82 | 1020.1 |
| 20260507122328 | 49 | 239 | 1.0 | 3.0 | 0.00 | 0.00 | 0.00 | 82 | 1020.1 |
| 20260507121830 | 49 | 252 | 0.0 | 2.0 | 0.00 | 0.00 | 0.00 | 82 | 1020.1 |
| 20260507121328 | 49 | 109 | 0.0 | 1.0 | 0.00 | 0.00 | 0.00 | 82 | 1020.1 |
| 20260507120834 | 49 | 278 | 1.0 | 2.0 | 0.00 | 0.00 | 0.00 | 82 | 1020.3 |
| 20260507120828 | 49 | 278 | 0.0 | 2.0 | 0.00 | 0.00 | 0.00 | 82 | 1020.2 |
| 20260507115829 | 49 | 251 | 1.0 | 4.0 | 0.00 | 0.00 | 0.00 | 82 | 1020.2 |
| 20260507115329 | 50 | 320 | 1.0 | 4.0 | 0.00 | 0.00 | 0.00 | 82 | 1020.2 |
| 20260507114828 | 50 | 121 | 0.0 | 2.0 | 0.00 | 0.00 | 0.00 | 82 | 1020.3 |
| 20260507114325 | 50 | 171 | 0.0 | 3.0 | 0.00 | 0.00 | 0.00 | 82 | 1020.2 |
| 20260507113824 | 50 | 117 | 0.0 | 3.0 | 0.00 | 0.00 | 0.00 | 82 | 1020.3 |
| 20260507113324 | 50 | 4 | 0.0 | 3.0 | 0.00 | 0.00 | 0.00 | 82 | 1020.4 |
| 20260507112826 | 50 | 201 | 0.0 | 2.0 | 0.00 | 0.00 | 0.00 | 82 | 1020.4 |
| 20260507112326 | 50 | 152 | 0.0 | 1.0 | 0.00 | 0.00 | 0.00 | 82 | 1020.4 |
| 20260507111825 | 50 | 169 | 0.0 | 2.0 | 0.00 | 0.00 | 0.00 | 82 | 1020.5 |
| 20260507111325 | 50 | 121 | 1.0 | 5.0 | 0.00 | 0.00 | 0.00 | 82 | 1020.5 |
| 20260507110830 | 50 | 230 | 0.0 | 0.0 | 0.00 | 0.00 | 0.00 | 83 | 1020.5 |
| 20260507110826 | 50 | 127 | 1.0 | 5.0 | 0.00 | 0.00 | 0.00 | 83 | 1020.4 |
| 20260507105823 | 50 | 191 | 0.0 | 3.0 | 0.00 | 0.00 | 0.00 | 83 | 1020.5 |
| 20260507105320 | 50 | 128 | 0.0 | 3.0 | 0.00 | 0.00 | 0.00 | 83 | 1020.5 |
| 20260507104828 | 50 | 255 | 0.0 | 2.0 | 0.00 | 0.00 | 0.00 | 84 | 1020.5 |
| 20260507104822 | 50 | 255 | 0.0 | 1.0 | 0.00 | 0.00 | 0.00 | 84 | 1020.5 |
| 20260507103821 | 50 | 256 | 0.0 | 2.0 | 0.00 | 0.00 | 0.00 | 83 | 1020.5 |
| 20260507103318 | 50 | 5 | 0.0 | 2.0 | 0.00 | 0.00 | 0.00 | 83 | 1020.5 |
| 20260507102821 | 50 | 251 | 1.0 | 3.0 | 0.00 | 0.00 | 0.00 | 83 | 1020.5 |
| 20260507102817 | 50 | 251 | 1.0 | 3.0 | 0.00 | 0.00 | 0.00 | 83 | 1020.5 |
| 20260507102437 | 50 | 227 | 0.0 | 3.0 | 0.00 | 0.00 | 0.00 | 83 | 1020.5 |
| 20260507101317 | 50 | 166 | 0.0 | 2.0 | 0.00 | 0.00 | 0.00 | 83 | 1020.6 |
| 20260507100816 | 50 | 166 | 1.0 | 3.0 | 0.00 | 0.00 | 0.00 | 83 | 1020.6 |
| 20260507100314 | 51 | 115 | 1.0 | 3.0 | 0.00 | 0.00 | 0.00 | 83 | 1020.5 |
| 20260507095814 | 51 | 165 | 1.0 | 4.0 | 0.00 | 0.00 | 0.00 | 83 | 1020.5 |
| 20260507095314 | 51 | 48 | 1.0 | 4.0 | 0.00 | 0.00 | 0.00 | 83 | 1020.5 |
| 20260507094816 | 51 | 309 | 2.0 | 5.0 | 0.00 | 0.00 | 0.00 | 83 | 1020.4 |
| 20260507094315 | 51 | 217 | 1.0 | 5.0 | 0.00 | 0.00 | 0.00 | 83 | 1020.4 |
| 20260507093814 | 51 | 153 | 1.0 | 4.0 | 0.00 | 0.00 | 0.00 | 83 | 1020.4 |
| 20260507093314 | 51 | 300 | 0.0 | 3.0 | 0.00 | 0.00 | 0.00 | 83 | 1020.5 |
| 20260507092812 | 51 | 326 | 1.0 | 4.0 | 0.00 | 0.00 | 0.00 | 83 | 1020.4 |
| 20260507092312 | 51 | 327 | 2.0 | 7.0 | 0.00 | 0.00 | 0.00 | 83 | 1020.5 |
| 20260507091811 | 51 | 285 | 2.0 | 7.0 | 0.00 | 0.00 | 0.00 | 83 | 1020.4 |
| 20260507091311 | 51 | 259 | 1.0 | 7.0 | 0.00 | 0.00 | 0.00 | 82 | 1020.5 |
| 20260507090811 | 51 | 173 | 1.0 | 7.0 | 0.00 | 0.00 | 0.00 | 82 | 1020.5 |
| 20260507090311 | 51 | 232 | 1.0 | 3.0 | 0.00 | 0.00 | 0.00 | 82 | 1020.5 |
| 20260507085812 | 51 | 289 | 1.0 | 4.0 | 0.00 | 0.00 | 0.00 | 82 | 1020.6 |
| 20260507085311 | 51 | 282 | 1.0 | 5.0 | 0.00 | 0.00 | 0.00 | 82 | 1020.6 |
| 20260507084811 | 51 | 59 | 1.0 | 5.0 | 0.00 | 0.00 | 0.00 | 82 | 1020.6 |
| 20260507084313 | 51 | 262 | 1.0 | 4.0 | 0.00 | 0.00 | 0.00 | 82 | 1020.6 |
| 20260507083812 | 51 | 276 | 1.0 | 5.0 | 0.00 | 0.00 | 0.00 | 81 | 1020.6 |
| 20260507083309 | 51 | 27 | 1.0 | 5.0 | 0.00 | 0.00 | 0.00 | 81 | 1020.5 |
| 20260507082810 | 51 | 323 | 2.0 | 6.0 | 0.00 | 0.00 | 0.00 | 81 | 1020.5 |
| 20260507082308 | 51 | 141 | 1.0 | 6.0 | 0.00 | 0.00 | 0.00 | 81 | 1020.5 |
| 20260507081810 | 51 | 53 | 1.0 | 4.0 | 0.00 | 0.00 | 0.00 | 80 | 1020.6 |
| 20260507081308 | 51 | 257 | 1.0 | 6.0 | 0.00 | 0.00 | 0.00 | 80 | 1020.7 |
| 20260507080809 | 51 | 138 | 1.0 | 6.0 | 0.00 | 0.00 | 0.00 | 80 | 1020.6 |
| 20260507080309 | 51 | 217 | 1.0 | 5.0 | 0.00 | 0.00 | 0.00 | 80 | 1020.5 |
| 20260507075809 | 51 | 332 | 1.0 | 5.0 | 0.00 | 0.00 | 0.00 | 81 | 1020.5 |
| 20260507075315 | 51 | 260 | 1.0 | 6.0 | 0.00 | 0.00 | 0.00 | 81 | 1020.6 |
| 20260507075309 | 51 | 356 | 1.0 | 6.0 | 0.00 | 0.00 | 0.00 | 81 | 1020.6 |
| 20260507074308 | 51 | 245 | 1.0 | 3.0 | 0.00 | 0.00 | 0.00 | 81 | 1020.6 |
| 20260507073805 | 51 | 34 | 1.0 | 4.0 | 0.00 | 0.00 | 0.00 | 81 | 1020.5 |
| 20260507073308 | 51 | 101 | 1.0 | 5.0 | 0.00 | 0.00 | 0.00 | 81 | 1020.5 |
| 20260507072807 | 51 | 212 | 1.0 | 5.0 | 0.00 | 0.00 | 0.00 | 81 | 1020.6 |
| 20260507072309 | 51 | 135 | 1.0 | 5.0 | 0.00 | 0.00 | 0.00 | 81 | 1020.6 |
| 20260507071807 | 51 | 279 | 1.0 | 5.0 | 0.00 | 0.00 | 0.00 | 81 | 1020.5 |
| 20260507071306 | 51 | 28 | 1.0 | 4.0 | 0.00 | 0.00 | 0.00 | 82 | 1020.5 |
| 20260507070806 | 51 | 285 | 1.0 | 3.0 | 0.00 | 0.00 | 0.00 | 82 | 1020.4 |
| 20260507070303 | 51 | 166 | 1.0 | 3.0 | 0.00 | 0.00 | 0.00 | 82 | 1020.5 |
| 20260507065803 | 51 | 240 | 1.0 | 3.0 | 0.00 | 0.00 | 0.00 | 82 | 1020.5 |
| 20260507065305 | 51 | 167 | 1.0 | 4.0 | 0.00 | 0.00 | 0.00 | 82 | 1020.6 |
| 20260507064809 | 51 | 217 | 0.0 | 3.0 | 0.00 | 0.00 | 0.00 | 82 | 1020.5 |
| 20260507064805 | 51 | 122 | 1.0 | 4.0 | 0.00 | 0.00 | 0.00 | 82 | 1020.5 |
| 20260507063803 | 51 | 308 | 1.0 | 3.0 | 0.00 | 0.00 | 0.00 | 82 | 1020.5 |
| 20260507063304 | 51 | 115 | 1.0 | 5.0 | 0.00 | 0.00 | 0.00 | 82 | 1020.6 |
| 20260507062801 | 51 | 200 | 2.0 | 6.0 | 0.00 | 0.00 | 0.00 | 83 | 1020.6 |
| 20260507062301 | 51 | 209 | 1.0 | 6.0 | 0.00 | 0.00 | 0.00 | 82 | 1020.6 |
| 20260507061802 | 51 | 53 | 1.0 | 5.0 | 0.00 | 0.00 | 0.00 | 83 | 1020.5 |
| 20260507061305 | 51 | 299 | 1.0 | 7.0 | 0.00 | 0.00 | 0.00 | 84 | 1020.6 |
| 20260507061300 | 51 | 108 | 1.0 | 5.0 | 0.00 | 0.00 | 0.00 | 83 | 1020.6 |
| 20260507060923 | 51 | 125 | 2.0 | 7.0 | 0.00 | 0.00 | 0.00 | 84 | 1020.5 |